When you browse on this site, cookies collect data to enhance your experience and personalize the content and advertising you see.
Visit our Privacy Policy to learn more. By continuing to use the site, you agree to this use of cookies and data.
  • In Romania
  • List of Countries
  • For 7 days
  • Water Temperature
  • Satellite Maps
  • Weather Map
  • Weather Widgets
  • user-avatar
    Login

    Hourly Weather Lysogorskiy

    Today, 16 January, Wednesday

    Time Temperature Precipitation Wind Pressure Humidity
    00:00 -1°C° 0 mm 3 mps 719 mmHg 82%
    01:00 -1°C° 0 mm 3 mps 719 mmHg 80%
    02:00 +1°C° 0 mm 2 mps 718 mmHg 77%
    03:00 0°C° 0 mm 0 mps 718 mmHg 81%
    04:00 +1°C° 0 mm 0 mps 718 mmHg 77%
    05:00 +2°C° 0 mm 0 mps 718 mmHg 72%
    06:00 +3°C° 0 mm 1 mps 718 mmHg 68%
    07:00 +4°C° 0 mm 1 mps 718 mmHg 64%
    08:00 +5°C° 0 mm 1 mps 718 mmHg 61%
    09:00 +6°C° 0 mm 1 mps 718 mmHg 58%
    10:00 +5°C° 0 mm 2 mps 719 mmHg 57%
    11:00 +5°C° 0 mm 3 mps 719 mmHg 57%
    12:00 +6°C° 0 mm 5 mps 720 mmHg 57%
    13:00 +4°C° 0 mm 6 mps 720 mmHg 64%
    14:00 +2°C° 0 mm 7 mps 721 mmHg 71%
    15:00 -1°C° 0 mm 8 mps 722 mmHg 78%
    16:00 -1°C° 0 mm 7 mps 723 mmHg 79%
    17:00 -2°C° 0 mm 6 mps 723 mmHg 81%
    18:00 -2°C° 0 mm 5 mps 724 mmHg 82%
    19:00 -2°C° 0.1 mm 5 mps 725 mmHg 81%
    20:00 -2°C° 0.1 mm 4 mps 725 mmHg 80%
    21:00 -3°C° 0.1 mm 4 mps 726 mmHg 80%
    22:00 -3°C° 0 mm 4 mps 726 mmHg 78%
    23:00 -2°C° 0 mm 3 mps 727 mmHg 77%

    Tomorrow, 17 January, Thursday

    Time Temperature Precipitation Wind Pressure Humidity
    00:00 -2°C° 0 mm 3 mps 727 mmHg 76%
    01:00 -2°C° 0 mm 2 mps 727 mmHg 76%
    02:00 -2°C° 0 mm 2 mps 728 mmHg 77%
    03:00 -2°C° 0 mm 2 mps 728 mmHg 77%
    04:00 0°C° 0.1 mm 1 mps 728 mmHg 77%
    05:00 0°C° 0.1 mm 1 mps 729 mmHg 77%
    06:00 -1°C° 0.1 mm 0 mps 729 mmHg 77%
    07:00 -1°C° 0 mm 0 mps 730 mmHg 75%
    08:00 0°C° 0 mm 1 mps 730 mmHg 74%
    09:00 0°C° 0 mm 1 mps 731 mmHg 73%
    10:00 +1°C° 0 mm 1 mps 731 mmHg 69%
    11:00 +2°C° 0 mm 1 mps 731 mmHg 65%
    12:00 +2°C° 0 mm 1 mps 732 mmHg 60%
    13:00 +2°C° 0 mm 1 mps 732 mmHg 60%
    14:00 +3°C° 0 mm 1 mps 732 mmHg 60%
    15:00 +2°C° 0 mm 2 mps 732 mmHg 60%
    16:00 +1°C° 0 mm 2 mps 732 mmHg 67%
    17:00 -1°C° 0 mm 2 mps 733 mmHg 74%
    18:00 -2°C° 0 mm 2 mps 734 mmHg 81%
    19:00 -2°C° 0 mm 2 mps 734 mmHg 81%
    20:00 0°C° 0 mm 1 mps 734 mmHg 82%
    21:00 -1°C° 0 mm 1 mps 735 mmHg 82%
    22:00 0°C° 0 mm 1 mps 735 mmHg 80%
    23:00 -1°C° 0 mm 0 mps 735 mmHg 77%

    Day after tomorrow, 18 January, Friday

    Time Temperature Precipitation Wind Pressure Humidity
    00:00 -1°C° 0 mm 0 mps 735 mmHg 74%
    01:00 -1°C° 0 mm 0 mps 736 mmHg 72%
    02:00 -1°C° 0 mm 0 mps 736 mmHg 69%
    03:00 -1°C° 0 mm 0 mps 736 mmHg 67%
    04:00 -1°C° 0 mm 0 mps 736 mmHg 65%
    05:00 -1°C° 0 mm 0 mps 736 mmHg 63%
    06:00 -1°C° 0 mm 0 mps 736 mmHg 61%
    07:00 0°C° 0 mm 0 mps 736 mmHg 58%
    08:00 0°C° 0 mm 0 mps 737 mmHg 55%
    09:00 +1°C° 0 mm 0 mps 737 mmHg 51%
    10:00 +2°C° 0 mm 0 mps 736 mmHg 47%
    11:00 +3°C° 0 mm 0 mps 736 mmHg 43%
    12:00 +4°C° 0 mm 0 mps 735 mmHg 39%
    13:00 +5°C° 0 mm 1 mps 735 mmHg 41%
    14:00 +6°C° 0 mm 1 mps 735 mmHg 44%
    15:00 +5°C° 0 mm 2 mps 735 mmHg 46%
    16:00 +3°C° 0 mm 2 mps 735 mmHg 53%
    17:00 +2°C° 0 mm 2 mps 735 mmHg 59%
    18:00 +1°C° 0 mm 1 mps 735 mmHg 66%
    19:00 +1°C° 0 mm 1 mps 735 mmHg 65%
    20:00 +1°C° 0 mm 1 mps 735 mmHg 64%
    21:00 +1°C° 0 mm 1 mps 735 mmHg 64%
    22:00 0°C° 0 mm 0 mps 735 mmHg 61%
    23:00 0°C° 0 mm 0 mps 735 mmHg 59%

    19 January, Saturday

    Time Temperature Precipitation Wind Pressure Humidity
    00:00 0°C° 0 mm 0 mps 735 mmHg 57%
    01:00 0°C° 0 mm 0 mps 735 mmHg 54%
    02:00 0°C° 0 mm 0 mps 735 mmHg 51%
    03:00 +1°C° 0 mm 1 mps 735 mmHg 48%
    04:00 +1°C° 0 mm 1 mps 735 mmHg 45%
    05:00 +1°C° 0 mm 1 mps 735 mmHg 41%
    06:00 +1°C° 0 mm 1 mps 734 mmHg 38%
    07:00 +2°C° 0 mm 1 mps 735 mmHg 36%
    08:00 +3°C° 0 mm 1 mps 735 mmHg 33%
    09:00 +3°C° 0 mm 1 mps 735 mmHg 30%
    10:00 +4°C° 0 mm 1 mps 735 mmHg 28%
    11:00 +6°C° 0 mm 1 mps 735 mmHg 26%
    12:00 +7°C° 0 mm 1 mps 735 mmHg 23%
    13:00 +6°C° 0 mm 0 mps 735 mmHg 27%
    14:00 +6°C° 0 mm 0 mps 734 mmHg 31%
    15:00 +7°C° 0 mm 0 mps 734 mmHg 35%
    16:00 +5°C° 0 mm 0 mps 734 mmHg 37%
    17:00 +4°C° 0 mm 0 mps 735 mmHg 40%
    18:00 +3°C° 0 mm 0 mps 735 mmHg 42%
    19:00 +2°C° 0 mm 0 mps 735 mmHg 43%
    20:00 +2°C° 0 mm 0 mps 735 mmHg 44%
    21:00 +2°C° 0 mm 0 mps 735 mmHg 44%
    22:00 +2°C° 0 mm 0 mps 735 mmHg 45%
    23:00 +2°C° 0 mm 0 mps 735 mmHg 45%

    20 January, Sunday

    Time Temperature Precipitation Wind Pressure Humidity
    00:00 +2°C° 0 mm 0 mps 735 mmHg 45%
    01:00 +2°C° 0 mm 0 mps 735 mmHg 46%
    02:00 +2°C° 0 mm 0 mps 736 mmHg 46%
    03:00 +2°C° 0 mm 0 mps 736 mmHg 47%
    04:00 +2°C° 0 mm 0 mps 736 mmHg 48%
    05:00 +2°C° 0 mm 0 mps 736 mmHg 50%
    06:00 +2°C° 0 mm 0 mps 736 mmHg 51%
    07:00 +2°C° 0 mm 0 mps 736 mmHg 54%
    08:00 +3°C° 0 mm 1 mps 736 mmHg 56%
    09:00 +3°C° 0 mm 1 mps 737 mmHg 59%
    10:00 +4°C° 0 mm 1 mps 736 mmHg 60%
    11:00 +3°C° 0 mm 2 mps 736 mmHg 61%
    12:00 +4°C° 0 mm 2 mps 736 mmHg 62%
    13:00 +4°C° 0 mm 2 mps 736 mmHg 63%
    14:00 +4°C° 0 mm 2 mps 735 mmHg 64%
    15:00 +3°C° 0 mm 3 mps 735 mmHg 66%
    16:00 +3°C° 0 mm 2 mps 735 mmHg 71%
    17:00 +2°C° 0 mm 2 mps 735 mmHg 77%
    18:00 +1°C° 0 mm 2 mps 735 mmHg 82%
    19:00 +1°C° 0 mm 2 mps 735 mmHg 83%
    20:00 -1°C° 0 mm 2 mps 735 mmHg 84%
    21:00 -1°C° 0 mm 2 mps 735 mmHg 85%
    22:00 -1°C° 0 mm 2 mps 735 mmHg 84%
    23:00 -1°C° 0 mm 2 mps 735 mmHg 83%

    21 January, Monday

    Time Temperature Precipitation Wind Pressure Humidity
    00:00 -1°C° 0 mm 2 mps 735 mmHg 82%
    01:00 -1°C° 0 mm 2 mps 734 mmHg 81%
    02:00 -1°C° 0 mm 2 mps 734 mmHg 80%
    03:00 -1°C° 0 mm 2 mps 734 mmHg 79%
    04:00 -1°C° 0 mm 2 mps 734 mmHg 78%
    05:00 -1°C° 0 mm 2 mps 734 mmHg 76%
    06:00 -1°C° 0 mm 2 mps 733 mmHg 75%
    07:00 -1°C° 0 mm 2 mps 733 mmHg 71%
    08:00 +2°C° 0 mm 1 mps 733 mmHg 67%
    09:00 +2°C° 0 mm 1 mps 733 mmHg 64%
    10:00 +3°C° 0 mm 2 mps 732 mmHg 57%
    11:00 +5°C° 0 mm 2 mps 731 mmHg 51%
    12:00 +6°C° 0 mm 2 mps 731 mmHg 44%
    13:00 +6°C° 0 mm 2 mps 730 mmHg 46%
    14:00 +6°C° 0 mm 2 mps 730 mmHg 47%
    15:00 +7°C° 0 mm 2 mps 729 mmHg 49%
    16:00 +5°C° 0 mm 2 mps 729 mmHg 53%
    17:00 +5°C° 0 mm 1 mps 729 mmHg 57%
    18:00 +4°C° 0 mm 1 mps 729 mmHg 61%
    19:00 +4°C° 0 mm 1 mps 729 mmHg 59%
    20:00 +4°C° 0 mm 1 mps 729 mmHg 58%
    21:00 +5°C° 0 mm 1 mps 729 mmHg 57%
    22:00 +3°C° 0 mm 2 mps 730 mmHg 65%
    23:00 +2°C° 0 mm 3 mps 730 mmHg 73%
    Show more